STARLINK-30507, 57982

Orbit data source: Space-Track

STARLINK-30507, 57982 is a payload satellite owned by SpaceX/Seattle (US) in LEO that was launched on Sat, 30 Sep 2023 UTC via an FALCON 9 launch vehicle from the Air Force Eastern Test Range (AFETR). Payload-class satellites include a variety of spacecraft equipped with specific instruments for various scientific and technological missions. These include communications satellites like Starlink; space stations such as the ISS; scientific satellites like the Hubble; Earth observation satellites from companies like Planet Labs, Umbra, and HawkEye 360; GPS; miniature CubeSats for education and research; and military/defense satellites.

Loading next visibility...
Identifier
57982, 2023-151U
Orbit
LEO
Country
Flag of USUS
Related business
Manufacturer
SpaceX/Seattle
Mission
Operational Commercial Communications
Bus & Motor
STARLINK V2M, Unknown motor
Mass
730 kg wet, ~700 kg dry
Launch date (UTC)
2023-09-30 (3 years ago)
Launch vehicle
FALCON 9
Launch site
Air Force Eastern Test Range (AFETR)
Object type
Payload
Rocket body
Debris
Shape & HBR
Box + 2 Pan, 17.7 m
Radar Cross Section
33.884 m², Large (>1 m²)

Expand to show TLE details & history
Last TLE update: 1 day ago

TLE from 1 day ago
0 STARLINK-30507
1 57982U 23151U   26175.13115385  .00003384  00000-0  13245-3 0  9997
2 57982  43.0019 112.8422 0001111 245.6854 114.3882 15.27578472151820
Epoch: 2026-06-24T03:08Z
TLE epoch observation values (Epoch: 2026-06-24T03:08:51.692Z)
Latitude
-0.00001°
Longitude
153.33404°
Altitude
483.144 km
Speed
7.625 km/s
True Right ascension
07h 31m 22s
True Declination
0° 00' 00"
Sunlit
Object was in daylight at epoch
Visualization orbit readout
Latitude
Unknown
Longitude
Unknown
Altitude
Unknown
Speed
Unknown
Apparent Right ascension
Unknown
Apparent Declination
Unknown
Sunlit
N/A
Visualization observer readout
Local Sidereal Time
15:07:15
Azimuth
Unknown
Elevation
Unknown
Doppler factor
Unknown
Orbital elements
Apogee altitude
485.761 km
Perigee altitude
484.236 km
Semi-major axis
6,863.136 km
Eccentricity
0.00011
Inclination
43.0019°
RAAN
112.8422°
Arg. of periapsis
245.6854°
True anomaly
114.39979°
Mean anomaly
114.3882°
Eccentric anomaly
114.394°
Mean motion
3.81733 °/min
Orbital period
94.31 mins
BSTAR
0.00013245
Loading maneuver chart data...
Computing Atmospheric mass density...
Loading historical data...
Loading historical data...
Loading historical data...
Loading historical data...
Loading historical data...
Loading historical data...
Loading historical data...

Documentation

Showing up to 5 results
|